Hourly Weather Roundup
Issued by NWS Central Illinois

Home | Current Version | Previous Version | Text Only | Print | Product List | Glossary On
Versions: 1 2 3 4 5 6 7 8 9 10 11 12 13 14 15 16 17 18 19 20 21 22 23 24 25 26 27 28 29 30 31 32 33 34 35 36 37 38 39 40 41 42 43 44 45 46 47 48 49 50
000
NZUS43 KILX 231910
HWRILX

AREA WEATHER ROUNDUP
NATIONAL WEATHER SERVICE, LINCOLN IL
200 PM CDT SAT MAY 23 2015


CITY           SKY/WX    TMP DP  RH WIND       PRES   REMARKS
BLOOMINGTON    MOSUNNY   79  49  34 S13       30.29F
CHAMPAIGN      MOSUNNY   79  44  28 VRB3      30.29F
DANVILLE       SUNNY     79  45  29 S8G16     30.28F
DECATUR        MOSUNNY   78  48  34 S15       30.29F
EFFINGHAM      MOSUNNY   77  44  30 SE12G17   30.32F
FLORA          SUNNY     76  49  38 S8        30.31F
GALESBURG      MOSUNNY   76  50  39 S10G17    30.25F
JACKSONVILLE   SUNNY     80  47  31 SE12G20   30.26F
LACON          SUNNY     77  45  32 W5        30.26F
LAWRENCEVILLE  SUNNY     78  50  37 S7        30.32F
LITCHFIELD     SUNNY     75  48  38 S10       30.29F
$$


CITY           SKY/WX    TMP DP  RH WIND       PRES   REMARKS
LINCOLN        SUNNY     79  46  31 S12       30.25F
MACOMB         SUNNY     78  47  33 S10       30.28F
MATTOON        SUNNY     76  51  41 S9        30.30F
MT CARMEL AP   SUNNY     81  36  19 SW7       30.31F
OLNEY-NOBLE AP MOSUNNY   77  50  38 SE12      30.31F
PARIS          MOSUNNY   78  46  32 S10       30.32F
PEORIA         MOSUNNY   79  51  37 S6        30.26F
PONTIAC        SUNNY     81  42  25 S7G17     30.27F
RANTOUL        FAIR      82  44  26 S12       30.28F HX  80
ROBINSON       SUNNY     78  47  33 SE6       30.32F
SPRINGFIELD    SUNNY     80  48  32 S13G21    30.28F
TAYLORVILLE    MOSUNNY   77  52  41 S15       30.29S HAZE
$$

...REGIONAL REPORTS...


CITY           SKY/WX    TMP DP  RH WIND       PRES   REMARKS
CHICAGO O`HARE MOSUNNY   78  41  26 SW10G18   30.27F
KANKAKEE       SUNNY     79  49  34 SW10G17   30.28F
MOLINE         MOSUNNY   78  47  33 SE8G18    30.23F
MOUNT VERNON   SUNNY     79  54  41 S6        30.31S
PITTSFIELD     MOSUNNY   77  48  35 S13G18    30.26F
QUINCY         MOSUNNY   75  46  35 S15       30.24F
ROCKFORD       MOSUNNY   79  44  28 S6        30.27F
$$


CITY           SKY/WX    TMP DP  RH WIND       PRES   REMARKS
BURLINGTON     MOSUNNY   77  52  41 S15G21    30.24F
CEDAR RAPIDS   MOSUNNY   76  48  37 S10       30.22F
DES MOINES     CLOUDY    71  51  49 S15G22    30.20F
KIRKSVILLE     PTSUNNY   72  55  55 S12       30.23F
OTTUMWA        LGT RAIN  73  50  44 S15       30.22F
ST LOUIS       PTSUNNY   78  48  34 S12G20    30.27F
$$


CITY           SKY/WX    TMP DP  RH WIND       PRES   REMARKS
TERRE HAUTE    MOSUNNY   77  52  41 S10       30.32F
EVANSVILLE     MOSUNNY   77  48  35 E9        30.31F
INDIANAPOLIS   MOSUNNY   78  46  32 S10G16    30.31F
LAFAYETTE      MOSUNNY   76  45  33 VRB5      30.30F
MADISON        MOSUNNY   76  39  26 SW6       30.25F
MILWAUKEE      MOSUNNY   72  41  32 SE17      30.28F
$$




USA.gov is the U.S. government's official web portal to all federal, state and local government web resources and services.